You are listening to:
YSBK ATIS - Bankstown, New South Wales, Australia

YSSY 210700Z 08011KT 9999 FEW035 BKN300 21/13 Q1015

If stream doesn't start automatically press the play button
If stream stops then reload player then press play